Date String (YYYY-MM-DD hh:mm:ss) UTC,Instrument flags,absolute air pressure of the measurement (hPa),sample flow rate (lpm),inlet stack bypass flow (lpm),air temperature of the measurement (°C),ambient temperature measured by the external sensor (°C),aerosol sample conditioner tube jacket temperature (°C),OPC LED temperature (°C),internal box temperature (°C),relative humidity of the measurement (%),span deviation,mass concentration of particles derived from Lorenz-Mie calculation of OPC scattering (μg/m³),mass concentration of particles derived from Lorenz-Mie calculation of OPC scattering (μg/m³),mass concentration of particles derived from Lorenz-Mie calculation of OPC scattering (μg/m³)
DateTimeUTC,F1_M11,P_M11,Q1_M11,Q2_M11,T1_M11,T2_M11,T3_M11,T4_M11,T5_M11,U1_M11,ZSPAN_M11,X2_M11,X0_M11,X1_M11
2024-03-30 23:00:00,SystemResetWarning,0820.3,5.00,000.00,025.5,024.9,000.0,033.9,027.4,20.9,0000.9,0009.97,0015.92,0009.44
2024-03-30 23:01:00,SystemResetWarning,0820.2,5.01,000.00,025.5,024.9,000.0,034.0,027.4,21.1,0000.7,0009.95,0014.41,0009.46
2024-03-30 23:02:00,SystemResetWarning,0820.1,5.02,000.00,025.5,024.9,000.0,034.0,027.4,20.9,0000.3,0009.94,0013.47,0009.46
2024-03-30 23:03:00,SystemResetWarning,0820.1,4.99,000.00,025.5,024.9,000.0,034.0,027.4,20.9,0000.4,0009.95,0013.69,0009.45
2024-03-30 23:04:00,SystemResetWarning,0820.1,4.99,000.00,025.5,024.9,000.0,034.0,027.4,20.8,0000.4,0009.95,0013.70,0009.44
2024-03-30 23:05:00,SystemResetWarning,0820.1,5.01,000.00,025.6,024.9,000.0,034.0,027.4,20.6,0000.8,0009.94,0014.62,0009.43
2024-03-30 23:06:00,SystemResetWarning,0820.2,5.00,000.00,025.6,024.9,000.0,034.0,027.4,20.8,0000.7,0009.94,0015.17,0009.41
2024-03-30 23:07:00,SystemResetWarning,0820.1,5.00,000.00,025.6,024.9,000.0,034.0,027.4,20.8,0000.8,0009.93,0015.25,0009.37
2024-03-30 23:08:00,SystemResetWarning,0820.1,5.00,000.00,025.6,024.9,000.0,034.0,027.4,20.7,0001.2,0009.95,0015.40,0009.36
2024-03-30 23:09:00,SystemResetWarning,0820.1,5.00,000.00,025.6,024.9,000.0,034.0,027.5,20.9,0001.7,0009.96,0015.41,0009.34
2024-03-30 23:10:00,SystemResetWarning,0820.1,5.00,000.00,025.6,025.0,000.0,034.0,027.5,20.8,0001.6,0009.97,0016.30,0009.33
2024-03-30 23:11:00,SystemResetWarning,0820.2,4.99,000.00,025.6,025.0,000.0,034.1,027.5,20.8,0001.5,0009.96,0016.80,0009.32
2024-03-30 23:12:00,SystemResetWarning,0820.4,5.00,000.00,025.6,025.0,000.0,034.1,027.5,20.9,0001.7,0009.96,0016.66,0009.32
2024-03-30 23:13:00,SystemResetWarning,0820.3,5.01,000.00,025.6,025.0,000.0,034.1,027.5,21.0,0001.9,0009.96,0016.70,0009.31
2024-03-30 23:14:00,SystemResetWarning,0820.3,5.02,000.00,025.6,025.0,000.0,034.1,027.5,21.1,0001.9,0009.94,0016.09,0009.30
2024-03-30 23:15:00,SystemResetWarning,0820.2,5.00,000.00,025.6,025.0,000.0,034.1,027.5,21.2,0002.0,0009.89,0015.82,0009.26
2024-03-30 23:16:00,SystemResetWarning,0820.5,4.99,000.00,025.6,025.0,000.0,034.1,027.5,21.0,0001.9,0009.85,0014.74,0009.25
2024-03-30 23:17:00,SystemResetWarning,0820.1,5.00,000.00,025.6,025.0,000.0,034.1,027.5,20.9,0002.0,0009.84,0014.32,0009.23
2024-03-30 23:18:00,SystemResetWarning,0820.1,5.00,000.00,025.6,025.0,000.0,034.1,027.5,20.9,0001.6,0009.83,0014.42,0009.22
2024-03-30 23:19:00,SystemResetWarning,0820.1,5.00,000.00,025.7,025.0,000.0,034.1,027.5,21.1,0001.4,0009.77,0014.37,0009.18
2024-03-30 23:20:00,SystemResetWarning,0820.1,5.01,000.00,025.7,025.0,000.0,034.1,027.5,21.0,0001.3,0009.71,0015.30,0009.13
2024-03-30 23:21:00,SystemResetWarning,0820.1,5.01,000.00,025.7,025.0,000.0,034.1,027.5,20.8,0001.5,0009.72,0014.95,0009.10
2024-03-30 23:22:00,SystemResetWarning,0820.2,5.00,000.00,025.7,025.0,000.0,034.1,027.5,20.8,0001.8,0009.68,0013.91,0009.06
2024-03-30 23:23:00,SystemResetWarning,0820.1,5.00,000.00,025.7,025.0,000.0,034.1,027.5,21.0,0002.0,0009.64,0013.96,0009.01
2024-03-30 23:24:00,SystemResetWarning,0820.1,5.00,000.00,025.7,025.0,000.0,034.2,027.5,20.9,0002.0,0009.61,0014.03,0008.98
2024-03-30 23:25:00,SystemResetWarning,0820.1,5.00,000.00,025.7,025.0,000.0,034.2,027.6,21.0,0001.7,0009.55,0014.86,0008.94
2024-03-30 23:26:00,SystemResetWarning,0820.1,4.98,000.00,025.7,025.1,000.0,034.2,027.6,20.8,0001.7,0009.57,0016.20,0008.94
2024-03-30 23:27:00,SystemResetWarning,0820.2,5.02,000.00,025.7,025.1,000.0,034.2,027.6,20.7,0001.7,0009.55,0016.68,0008.94
2024-03-30 23:28:00,SystemResetWarning,0820.4,5.00,000.00,025.7,025.1,000.0,034.2,027.6,20.8,0001.9,0009.57,0016.95,0008.91
2024-03-30 23:29:00,SystemResetWarning,0820.3,4.99,000.00,025.7,025.1,000.0,034.2,027.6,20.9,0001.3,0009.55,0016.84,0008.90
2024-03-30 23:30:00,SystemResetWarning,0820.2,4.99,000.00,025.7,025.1,000.0,034.2,027.6,21.1,0001.5,0009.56,0016.90,0008.90
2024-03-30 23:31:00,SystemResetWarning,0820.1,5.01,000.00,025.7,025.1,000.0,034.2,027.6,20.9,0001.4,0009.56,0016.71,0008.89
2024-03-30 23:32:00,SystemResetWarning,0820.1,5.00,000.00,025.7,025.1,000.0,034.2,027.6,20.4,0001.5,0009.51,0016.57,0008.89
2024-03-30 23:33:00,SystemResetWarning,0820.0,5.00,000.00,025.8,025.1,000.0,034.2,027.6,20.3,0000.9,0009.48,0016.02,0008.88
2024-03-30 23:34:00,SystemResetWarning,0820.0,5.00,000.00,025.8,025.1,000.0,034.2,027.6,20.6,0000.9,0009.47,0016.04,0008.88
2024-03-30 23:35:00,SystemResetWarning,0820.1,5.00,000.00,025.8,025.1,000.0,034.2,027.6,20.6,0000.5,0009.49,0017.03,0008.90
2024-03-30 23:36:00,SystemResetWarning,0820.0,5.00,000.00,025.8,025.1,000.0,034.3,027.6,20.6,0000.2,0009.51,0017.34,0008.91
2024-03-30 23:37:00,SystemResetWarning,0820.0,5.00,000.00,025.8,025.1,000.0,034.3,027.6,20.6,0000.1,0009.52,0016.14,0008.91
2024-03-30 23:38:00,SystemResetWarning,0820.1,5.00,000.00,025.8,025.1,000.0,034.3,027.6,20.3,0000.1,0009.50,0015.47,0008.90
2024-03-30 23:39:00,SystemResetWarning,0820.1,4.99,000.00,025.8,025.1,000.0,034.3,027.6,20.4,0000.2,0009.50,0015.41,0008.90
2024-03-30 23:40:00,SystemResetWarning,0820.2,5.00,000.00,025.8,025.1,000.0,034.3,027.7,20.4,0000.4,0009.48,0015.61,0008.89
2024-03-30 23:41:00,SystemResetWarning,0820.0,4.99,000.00,025.8,025.2,000.0,034.3,027.7,20.2,0000.3,0009.46,0016.53,0008.89
2024-03-30 23:42:00,SystemResetWarning,0820.0,5.00,000.00,025.8,025.2,000.0,034.3,027.7,20.3,0001.0,0009.50,0016.41,0008.92
2024-03-30 23:43:00,SystemResetWarning,0820.0,5.00,000.00,025.8,025.2,000.0,034.3,027.7,20.6,0000.6,0009.53,0016.11,0008.91
2024-03-30 23:44:00,SystemResetWarning,0819.9,5.00,000.00,025.8,025.2,000.0,034.3,027.7,20.4,0000.1,0009.53,0016.94,0008.89
2024-03-30 23:45:00,SystemResetWarning,0820.1,4.99,000.00,025.8,025.2,000.0,034.3,027.7,20.1,-000.4,0009.55,0017.47,0008.90
2024-03-30 23:46:00,SystemResetWarning,0820.0,5.01,000.00,025.8,025.2,000.0,034.3,027.7,20.2,-000.6,0009.54,0016.42,0008.88
2024-03-30 23:47:00,SystemResetWarning,0820.0,5.00,000.00,025.8,025.2,000.0,034.3,027.7,20.3,-000.5,0009.57,0017.26,0008.88
2024-03-30 23:48:00,SystemResetWarning,0820.0,5.01,000.00,025.8,025.2,000.0,034.3,027.7,20.3,-000.1,0009.56,0017.74,0008.87
2024-03-30 23:49:00,SystemResetWarning,0820.0,5.01,000.00,025.8,025.2,000.0,034.3,027.7,20.2,0000.2,0009.56,0017.40,0008.87
2024-03-30 23:50:00,SystemResetWarning,0820.0,5.00,000.00,025.9,025.2,000.0,034.3,027.7,20.4,0000.3,0009.57,0017.34,0008.86
2024-03-30 23:51:00,SystemResetWarning,0820.0,5.00,000.00,025.9,025.2,000.0,034.3,027.7,20.5,0001.0,0009.52,0017.54,0008.84
2024-03-30 23:52:00,SystemResetWarning,0819.9,5.00,000.00,025.9,025.2,000.0,034.4,027.7,20.4,0001.5,0009.50,0017.01,0008.81
2024-03-30 23:53:00,SystemResetWarning,0819.9,4.99,000.00,025.9,025.2,000.0,034.4,027.7,20.3,0001.0,0009.50,0018.62,0008.78
2024-03-30 23:54:00,SystemResetWarning,0819.9,4.99,000.00,025.9,025.2,000.0,034.4,027.8,20.5,0000.9,0009.52,0019.15,0008.77
2024-03-30 23:55:00,SystemResetWarning,0819.9,5.00,000.00,025.9,025.2,000.0,034.4,027.8,20.3,0001.3,0009.54,0018.68,0008.76
2024-03-30 23:56:00,SystemResetWarning,0819.9,5.00,000.00,025.9,025.2,000.0,034.4,027.8,20.3,0001.8,0009.54,0018.16,0008.72
2024-03-30 23:57:00,SystemResetWarning,0819.9,5.00,000.00,025.9,025.2,000.0,034.4,027.8,20.4,0002.4,0009.53,0018.56,0008.69
2024-03-30 23:58:00,SystemResetWarning,0819.9,5.00,000.00,025.9,025.2,000.0,034.4,027.8,20.3,0002.6,0009.54,0019.28,0008.66
2024-03-30 23:59:00,SystemResetWarning,0819.9,5.01,000.00,025.9,025.3,000.0,034.4,027.8,20.3,0002.3,0009.58,0019.24,0008.66
